CZ-6A DEB, 60818

Orbit data source: Space-Track

CZ-6A DEB, 60818 is space debris in LEO originally from a launch on Tue, 06 Aug 2024 UTC launched from the Taiyaun Space Center, China (TSC). Debris objects in space refer to the collection of defunct objects orbiting the Earth. Examples of debris include non-operational satellites, rocket bodies, and fragments generated from explosions, collisions, or faulty payload assembly.

Loading next visibility...
Identifier
60818, 2024-140GV
Orbit
LEO
Country
Flag of CNCN / PRC
Related business
Manufacturer
SAST
Mission
Spacecraft
Bus & Motor
Unknown
Mass
Unknown
Launch date (UTC)
2024-08-06 (2 years ago)
Launch vehicle
Unknown
Launch site
Taiyaun Space Center, China (TSC)
Object type
Payload
Rocket body
Debris
Shape & HBR
Unknown shape, 0.3 m
Radar Cross Section
Medium (>0.1 m² and <1 m²)

Expand to show TLE details & history
Last TLE update: 14 hours ago

TLE from 14 hours ago
0 CZ-6A DEB
1 60818U 24140GV  26171.26470679  .00002665  00000-0  71286-3 0  9998
2 60818  88.8886 262.0052 0035596 264.4558  95.2587 14.47691387 97653
Epoch: 2026-06-20T06:21Z
TLE epoch observation values (Epoch: 2026-06-20T06:21:10.666Z)
Latitude
-0.00005°
Longitude
-101.77106°
Altitude
738.701 km
Speed
7.484 km/s
True Right ascension
17h 28m 01s
True Declination
0° 00' 00"
Sunlit
Object was in full shadow at epoch
Visualization orbit readout
Latitude
Unknown
Longitude
Unknown
Altitude
Unknown
Speed
Unknown
Apparent Right ascension
Unknown
Apparent Declination
Unknown
Sunlit
N/A
Visualization observer readout
Local Sidereal Time
07:21:56
Azimuth
Unknown
Elevation
Unknown
Doppler factor
Unknown
Orbital elements
Apogee altitude
755.413 km
Perigee altitude
704.808 km
Semi-major axis
7,108.248 km
Eccentricity
0.00356
Inclination
88.8886°
RAAN
262.0052°
Arg. of periapsis
264.4558°
True anomaly
95.66471°
Mean anomaly
95.2587°
Eccentric anomaly
95.46172°
Mean motion
3.62159 °/min
Orbital period
99.4 mins
BSTAR
0.00071286
Loading maneuver chart data...
Computing Atmospheric mass density...
Loading historical data...
Loading historical data...
Loading historical data...
Loading historical data...
Loading historical data...
Loading historical data...
Loading historical data...

Documentation

Showing up to 5 results
|